Other Public Products
Issued by NWS Grand Forks, ND

Home | Current Version | Previous Version | Graphics & Text | Print | Product List | Glossary On
Versions: 1 2 3 4 5 6 7 8 9 10 11 12 13 14 15 16 17 18 19 20 21 22 23 24 25 26 27 28 29 30 31 32 33 34 35 36 37 38 39 40 41 42 43 44 45 46 47 48 49 50
000
FPUS83 KFGF 121731
OPUFGF
PRAIRIE TO PINES WEATHER ROUNDUP
NATIONAL WEATHER SERVICE EASTERN NORTH DAKOTA/GRAND FORKS ND
1100 AM CST TUE DEC 12 2017

 **SATELLITE DATA USED TO AUGMENT SKY COVER AT AUTOMATED STATIONS**
 *****  WEATHER ACROSS EASTERN NORTH DAKOTA  *****

CITY           SKY/WX    TMP DP  RH WIND       PRES   REMARKS
GRAND FORKS    CLOUDY    25  23  92 S12       29.93F WCI  14
GRND FORKS AFB CLOUDY    28  25  88 S6        29.92F WCI  21
GRND FORKS NWS   N/A     23 N/A N/A S5          N/A  WCI  17
BUXTON           N/A     28  27  96 S6          N/A  WCI  21
DEVILS LAKE    PTSUNNY   32  27  81 W10       29.92F WCI  24
FARGO          PTSUNNY   28  24  85 S12       29.99F WCI  18
WAHPETON ARPT  CLOUDY    32  27  80 SW8       30.01F WCI  25
$$

 *****  WEATHER ACROSS CENTRAL AND WESTERN NORTH DAKOTA  *****

CITY           SKY/WX    TMP DP  RH WIND       PRES   REMARKS
JAMESTOWN      FAIR      33  28  81 SW9       29.95F
BISMARCK       FAIR      37  27  67 W9        30.01F
MINOT          FAIR      39  24  55 SW17      29.91F
MINOT AFB      FAIR      38  24  58 W17       29.89F
GARRISON         N/A     37  28  70 W14       29.94F
WILLISTON      SUNNY     34  27  75 SW6       29.97F
DICKINSON      FAIR      42  25  50 W15       29.99F
HETTINGER      FAIR      41  23  48 W15       30.05F
$$

 *****  OTHER OBSERVATIONS NORTHEAST NORTH DAKOTA  *****

CITY           SKY/WX    TMP DP  RH WIND       PRES   REMARKS
WALHALLA       FAIR      30  30 100 SE5       29.88F
LANGDON        CLOUDY    32  30  93 SW15      29.83F WCI  22
CAVALIER       FAIR      27  25  93 S5        29.89F WCI  21
GRAFTON        FAIR      27  25  93 S7        29.93F WCI  19
CANDO          FAIR      34  30  86 W12       29.89F
FORT TOTTEN      N/A     34  27  74 W5        29.95S
ROLLA          FAIR      30  27  86 SW13      29.85F WCI  20
RUGBY          FAIR      32  28  86 W13       29.89F WCI  22
 ***** THE ABOVE OBSERVATIONS ARE NON NWS ARE NOT QUALITY
        CONTROLLED AND MAY MIS-REPORT RAIN FOR SNOW...
$$

 *****  OTHER OBSERVATIONS SOUTHEAST NORTH DAKOTA *****

CITY           SKY/WX    TMP DP  RH WIND       PRES   REMARKS
COOPERSTOWN    CLOUDY    32  28  86 W9        29.93F WCI  24
VALLEY CITY    CLOUDY    32  32 100 W12       29.96F WCI  23
OAKES            N/A     30  30 100 SW13      29.99F WCI  20
GWINNER          N/A     32  28  86 SW16      29.98F WCI  21
SHEYENNE NWR     N/A     30  28  90 SW9       29.95S WCI  22
BUFFALO          N/A     32  27  82 SE8         N/A  WCI  24
WYNDMERE       NOT AVBL
 ***** THE ABOVE OBSERVATIONS ARE NON NWS ARE NOT QUALITY
       CONTROLLED AND MAY MIS-REPORT RAIN FOR SNOW...
$$

  *****  WEATHER ACROSS NORTHERN MINNESOTA  *****

CITY           SKY/WX    TMP DP  RH WIND       PRES   REMARKS
FLAG ISLAND    LGT SNOW   9   7  92 S12       29.95F WCI  -6
WARROAD        LGT SNOW  12   9  85 SE6       29.95F WCI   3
ROSEAU         LGT SNOW  14   9  79 SE8       29.94F WCI   3
HALLOCK        FAIR      21  19  93 S13       29.91F WCI   9
THF RVR FALLS  CLOUDY    20  18  92 S13       29.94F WCI   7
HALSTAD        NOT AVBL
FOSSTON        CLOUDY    19  18  93 S13       29.95F WCI   7
BAUDETTE       LGT SNOW   9   6  88 SE9       29.96F FOG     WCI  -4
WASKISH        LGT SNOW  10   9  92 SE6       29.98F WCI   1
CROOKSTON      FAIR      23  21  93 S14       29.94F WCI  11
$$
  *****  WEATHER ACROSS CENTRAL AND WEST MINNESOTA  *****

CITY           SKY/WX    TMP DP  RH WIND       PRES   REMARKS
BEMIDJI        LGT SNOW  13  11  90 S6        29.97F WCI   4
PARK RAPIDS    CLOUDY    15  12  88 S7        29.97F FOG     WCI   5
WADENA         FLURRIES  18  16  93 S8        30.01F WCI   7
DETROIT LAKES  PTSUNNY   23  21  93 S8        29.99F WCI  14
MOORHEAD       FAIR      27  21  80 CALM      29.99F
FERGUS FALLS   PTSUNNY   25  21  86 S9        30.05F WCI  15
ELBOW LAKE     CLOUDY    25  22  86 S10       30.04F FOG     WCI  15
MORRIS MN      CLOUDY    28  21  74 SW9       30.04F WCI  20
STAPLES        LGT SNOW  14  12  92 S7        30.03F WCI   4
WHEATON        FAIR      34  27  75 S12       30.04F
$$
  *****  WEATHER ELSEWHERE ACROSS MINNESOTA  *****

CITY           SKY/WX    TMP DP  RH WIND       PRES   REMARKS
DULUTH         CLOUDY     5   0  79 NW12      30.05F WCI -11
INTRNTL FALLS  CLOUDY     5   2  87 S5        30.03F WCI  -4
ELY            FAIR       1  -2  85 SW5       30.03F WCI  -8
CLOQUET        CLOUDY     7   1  78 W7        30.05F WCI  -5
BRAINERD       LGT SNOW  11   6  81 SE6       30.05F WCI   1
HIBBING        CLOUDY     4   0  83 VRB3      30.05F
ALEXANDRIA     CLOUDY    20  15  81 SW10      30.05F WCI   9
SAINT CLOUD    CLOUDY    13  10  88 S6        30.12F WCI   4
MINNEAPOLIS    CLOUDY    14   6  70 CALM      30.15F
$$

  *****  WEATHER ACROSS SOUTH DAKOTA  *****

CITY           SKY/WX    TMP DP  RH WIND       PRES   REMARKS
SIOUX FALLS    PTSUNNY   28  23  81 SW8       30.18F WCI  20
BROOKINGS      FAIR      28  25  88 SW12      30.12F WCI  18
WATERTOWN      FAIR      29  27  92 SW10      30.07F WCI  20
HURON          FAIR      38  30  73 SW9       30.14F
SISSETON         N/A     34  27  75 W15G22    30.02F WCI  24
ABERDEEN       PTSUNNY   33  29  85 SW13      30.07F WCI  24
MITCHELL       FAIR      36  30  79 SW8       30.18F
PIERRE         FAIR      32  26  78 MISG      30.12F
MOBRIDGE       FAIR      34  27  75 SW9       30.03F
RAPID CITY     FAIR      44  16  32 CALM      30.14F
$$

  *****  SOME WEATHER IN NEARBY STATES *****

CITY           SKY/WX    TMP DP  RH WIND       PRES   REMARKS
GLASGOW MT     FAIR      32  22  66 CALM      30.00F
GREAT FALLS MT FAIR      53   1  12 SW28G38   30.14F
CHEYENNE WY    FAIR      55  15  20 W9        30.33R
SCOTTSBLUFF NE FAIR      42  19  39 NW10      30.26F
OMAHA NE       FAIR      26  16  65 S3        30.30F
DES MOINES IA  FAIR      22   8  55 NW6       30.27F WCI  14
DAVENPORT IA   FAIR      22  11  62 NW14      30.22S WCI   9
CHICAGO IL     FAIR      20   7  57 NW17      30.09S WCI   5
EAU CLAIRE WI  CLOUDY    10   1  67 W6        30.14F WCI   0
LA CROSSE WI   FAIR      17   4  56 N7        30.17F WCI   8
$$

  *****  SOME NATIONAL WEATHER *****

CITY           SKY/WX    TMP DP  RH WIND       PRES   REMARKS
LA GUARDIA NY  CLOUDY    51  38  60 SW18G26   29.48F
RALEIGH NC     CLOUDY    49  35  58 W8        29.66F
ATLANTA GA     PTSUNNY   49  33  54 NW24G30   29.94R
NEW ORLEANS LA FAIR      59  39  47 N14G21    30.19F
OKLAHOMA CITY  FAIR      42  26  53 NW10      30.43S
ALBUQUERQUE NM FAIR      37   6  27 NW5       30.52S
SALT LAKE CITY SNOW      25  23  92 CALM      30.61S VSB 1/4
LOS ANGELES CA FAIR      70   9   9 VRB3      30.20R
BOISE ID       CLOUDY    23  21  92 CALM      30.67F FOG
SEATTLE WA     CLOUDY    41  31  67 CALM      30.47S
$$

*** WEATHER ACROSS MANITOBA...SASKATCHEWAN AND ONTARIO ***
                ***ONTARIO***

CITY           SKY/WX    TMP DP  RH WIND       PRES   REMARKS
GERALDTON      PTSUNNY   -4 -11  71 VRB2      29.98F
THUNDER BAY    MOSUNNY    1  -8  66 W6        30.09F WCI -10
SIOUX LOOKOUT  PTSUNNY   -4  -9  77 CALM      29.99F
TORONTO        PTSUNNY   25  12  58 W21G29    29.55R WCI  10
BIG TROUT LK   SUNNY    -11 -15  84 W8        29.96F WCI -28
PICKLE LAKE    MOSUNNY  -11 -17  77 W6        29.95F WCI -25
DRYDEN         PTSUNNY   -2  -6  84 S7        29.97F WCI -16
KENORA         LGT SNOW   5   1  85 S8        29.95  WCI  -8
$$
                *** MANITOBA***

CITY           SKY/WX    TMP DP  RH WIND       PRES   REMARKS
BRANDON        PTSUNNY   30  27  86 W6        29.82F WCI  24
DAUPHIN        MOSUNNY   34  27  75 SW7       29.76F
ISLAND LAKE    PTSUNNY   -6  -9  84 SE6       29.91F WCI -18
PILOT MOUND      N/A     30  27  86 SW9         N/A  WCI  22
THE PAS        CLOUDY    18  16  93 S10       29.64F FOG     WCI   6
THOMPSON       LGT SNOW   1  -2  85 VRB2      29.78F
WINNIPEG       FLURRIES  16  14  93 SE14      29.90F WCI   1
LYNN LAKE      FLURRIES   9   7  92 SE8       29.60F WCI  -4
CHURCHILL      MOCLDY   -18 -24  76 W5        29.94F WCI -31
GILLAM         CLOUDY   -13 -18  77 CALM      29.90F
$$
                ***SASKATCHEWAN***

CITY           SKY/WX    TMP DP  RH WIND       PRES   REMARKS
ESTEVAN        MOSUNNY   34  25  69 SW14      29.88F WCI  24
KINDERSLEY     CLOUDY    28  23  80 SW13      29.82F WCI  18
LLOYDMINSTER   MOCLDY    36  28  75 W14       29.80R
PRINCE ALBERT  MOCLDY    27  21  80 W3        29.71F
REGINA         MOSUNNY   36  27  69 SW5       29.84F
YORKTON        SUNNY     34  25  69 SW10      29.74F



USA.gov is the U.S. government's official web portal to all federal, state and local government web resources and services.